#timestamp,LO_Frequency,Hit,StdDev 
1597748415.8,286047001.0,N
1597748435.7,286047000.3,N
1597748455.5,286047000.6,N
1597748475.3,286047000.2,N
1597748495.2,286047000.9,N
1597748515.0,286047000.6,N
1597748515.9,286047000.6,N
1597748535.8,286047001.2,N
1597748555.6,286047001.2,N
1597748575.4,286047002.8,N
1597748595.3,286047000.2,N
1597748615.1,286046998.6,N
1597748635.8,286046998.2,N
1597748655.7,286047000.2,N
1597748675.5,286047002.1,N
1597748695.4,286047002.9,N
1597748715.2,286047007.6,Y
1597748735.0,286047005.9,P
1597748735.9,286047005.9,N
1597748755.8,286047004.4,N
1597748775.6,286047004.4,N
1597748795.4,286047001.3,N
1597748815.3,286047001.8,N
1597748835.1,286047003.0,N
1597748855.9,286047005.6,N
1597748875.7,286047003.5,N
1597748895.5,286047002.9,N
1597748915.4,286047002.9,N
1597748935.2,286047003.6,N
1597748955.0,286047004.3,N
1597748955.9,286047004.3,N
1597748975.8,286047003.7,N
1597748995.6,286047003.2,N
1597749015.5,286047005.3,Y
1597749035.3,286047000.3,P
1597749055.1,286047001.6,N
1597749075.3,286047002.1,N
1597749095.1,286047001.8,N
1597749115.8,286047000.3,N
1597749135.7,286047001.1,N
1597749155.5,286047000.7,N
1597749175.4,286046998.5,N
1597749195.2,286046999.7,N
1597749215.0,286047002.4,N
1597749215.9,286047002.4,N
1597749235.8,286047001.9,N
1597749255.6,286047002.0,N
1597749275.4,286047002.6,N
1597749295.3,286047002.5,N
1597749315.1,286047002.6,N
1597749335.9,286047002.4,N
1597749355.7,286047003.1,N
1597749375.5,286047002.1,N
1597749395.4,286047000.2,N
1597749415.2,286047000.2,N
1597749435.0,286047000.3,N
1597749435.9,286047000.3,N
1597749455.8,286046999.7,N
1597749475.6,286046999.9,N
1597749495.5,286047000.4,N
1597749515.3,286047002.7,N
1597749535.1,286047004.0,Y
1597749555.9,286047001.6,P
1597749575.7,286046998.1,P
1597749595.5,286047000.0,N
1597749615.4,286046999.8,N
1597749635.2,286047000.2,N
1597749655.1,286046998.7,N
1597749656.0,286046998.7,N
1597749675.8,286046998.5,N
1597749695.6,286046998.4,N
1597749715.5,286046998.3,N
1597749735.3,286047001.0,N
1597749755.1,286047000.6,N
1597749775.9,286046998.3,N
1597749795.7,286046998.6,N
1597749815.6,286047001.0,N
1597749835.4,286046996.5,N
1597749855.2,286046999.5,N
1597749875.1,286046999.3,N
1597749876.0,286046999.3,N
1597749895.8,286046998.9,N
1597749915.6,286046998.6,N
1597749935.5,286047001.0,N
1597749955.3,286046998.5,N
1597749975.2,286046998.3,N
1597749995.0,286047000.8,N
1597749995.9,286047000.8,N
1597750015.7,286047002.7,N
1597750035.6,286047000.3,N
1597750055.4,286047000.3,N
1597750075.3,286047000.1,N
1597750095.1,286047002.6,N
1597750096.0,286047002.6,N
1597750115.8,286047002.4,N
1597750135.7,286047002.4,N
1597750155.5,286047002.1,N
1597750175.3,286047002.7,N
1597750225.2,286047001.9,E
1597750235.1,286047000.1,N
1597750255.9,286046996.6,P
1597750275.7,286046996.5,N
1597750295.5,286046999.6,N
1597750315.4,286046999.3,N
1597750335.2,286046999.2,N
1597750355.1,286046996.8,N
1597750356.0,286046996.8,N
1597750375.8,286046996.8,N
1597750395.6,286046997.6,N
1597750415.5,286046997.7,N
1597750435.3,286046997.5,N
1597750455.1,286046995.0,Y
1597750475.9,286046999.4,P
1597750495.7,286046996.7,P
1597750515.6,286046999.0,N
1597750535.4,286046999.6,N
1597750555.2,286046999.5,N
1597750575.1,286046996.7,Y
1597750576.0,286046996.7,P
1597750595.8,286046999.0,N
1597750615.6,286046998.4,N
1597750635.5,286046998.9,N
1597750655.3,286046998.7,N
1597750675.2,286046998.9,N
1597750695.9,286046998.7,N
1597750715.7,286046998.7,N
1597750735.6,286047001.1,N
1597750755.4,286046998.6,N
1597750775.2,286046998.3,N
1597750795.1,286047001.1,N
1597750796.0,286047001.1,N
1597750815.8,286046999.6,N
1597750835.7,286046999.4,N
1597750855.5,286046998.5,N
1597750875.3,286046999.3,N
1597750895.2,286046998.3,N
1597750915.0,286046999.1,N
1597750915.9,286046999.1,N
1597750935.7,286046996.7,Y
1597750955.6,286046998.3,P
1597750975.4,286046999.2,N
1597750995.3,286046999.6,N
1597751015.1,286046999.5,N
1597751016.0,286046999.5,N
1597751035.8,286046999.2,N
1597751055.7,286046998.8,Y
1597751075.5,286046998.8,P
1597751095.3,286046998.7,P
1597751115.2,286047001.2,P
1597751135.0,286047000.6,N
1597751135.9,286047000.6,N
1597751155.8,286047001.2,N
1597751175.2,286047000.4,N
1597751195.1,286047000.4,N
1597751196.0,286047000.4,N
1597751215.8,286046998.2,N
1597751235.6,286046998.1,N
1597751255.5,286046998.2,N
1597751275.3,286047000.5,N
1597751295.2,286046998.9,N
1597751315.9,286046998.9,N
1597751335.7,286046999.0,N
1597751355.6,286046998.3,N
1597751375.4,286047001.1,N
1597751395.2,286046998.8,N
1597751415.1,286046998.7,N
1597751416.0,286046998.7,N
1597751435.8,286046998.2,N
1597751455.7,286046998.6,N
1597751475.5,286046998.2,N
1597751495.3,286046998.7,N
1597751515.2,286047001.2,N
1597751535.0,286047001.2,N
1597751535.9,286047001.2,N
1597751555.7,286047000.7,N
1597751575.6,286047001.0,N
1597751595.4,286046998.6,N
1597751615.3,286047001.2,N
1597751635.1,286047001.1,N
1597751636.0,286047001.1,N
1597751655.8,286046998.2,N
1597751675.7,286046998.1,N
1597751695.5,286047000.8,N
1597751715.3,286047000.4,N
1597751735.2,286047001.1,N
1597751755.0,286047000.8,N
1597751755.9,286047000.8,N
1597751775.8,286047000.4,N
1597751795.6,286046998.1,N
1597751815.4,286047000.6,N
1597751835.3,286046998.6,N
1597751855.1,286046998.2,N
1597751875.8,286047001.0,N
1597751895.7,286046999.8,N
1597751915.5,286047000.2,N
1597751935.4,286047000.2,N
1597751955.2,286046999.7,N
1597751975.0,286047002.8,N
1597751975.9,286047002.8,N
1597751995.8,286047002.6,N
